Regional Weather Roundup
Issued by NWS Green Bay, WI

Home | Current Version | Previous Version | Text Only | Print | Product List | Glossary On
Versions: 1 2 3 4 5 6 7 8 9 10 11 12 13 14 15 16 17 18 19 20 21 22 23 24 25 26 27 28 29 30 31 32 33 34 35 36 37 38 39 40 41 42 43 44 45 46 47 48 49 50
000
ASUS43 KGRB 280510
RWRGRB

NORTH-CENTRAL AND NORTHEAST WISCONSIN REGIONAL WEATHER ROUNDUP
NATIONAL WEATHER SERVICE GREEN BAY WI
1100 PM CST TUE JAN 27 2015

WIZ005-009-010>012-018-019-280600-
NORTH CENTRAL WISCONSIN

CITY           SKY/WX    TMP DP  RH WIND       PRES   REMARKS
IRONWOOD       CLOUDY    25  19  80 SW7       30.12S
MANITOWISH WTR CLOUDY    22  20  91 S5        30.14R
ARBOR VITAE    CLOUDY    23  20  86 SW6       30.15R
EAGLE RIVER    CLOUDY    22  17  83 CALM      30.14S
LAND O LAKES   CLOUDY    23  19  87 S3        30.15R
RHINELANDER    CLOUDY    22  17  81 S6        30.16R
PHILLIPS       CLOUDY    23  19  87 S6        30.15R
ANTIGO         CLOUDY    21  18  89 S6        30.17F
TOMAHAWK       CLOUDY    22  19  85 CALM      30.17R
MERRILL        CLOUDY    24  20  87 S5        30.18R
$$

WIZ013-073-280600-
NORTHEAST WISCONSIN

CITY           SKY/WX    TMP DP  RH WIND       PRES   REMARKS
IRON MOUNTAIN  CLOUDY    22  17  81 S5        30.17R
MARINETTE      MOCLDY    18  16  93 CALM      30.24R
OCONTO         MOCLDY    11  10  93 CALM      30.26R
$$

WIZ017-030-035>037-045-280600-
CENTRAL WISCONSIN

CITY           SKY/WX    TMP DP  RH WIND       PRES   REMARKS
MEDFORD        CLOUDY    23  19  86 S6        30.16S
WAUSAU         CLOUDY    23  20  88 S6        30.18S
MOSINEE        CLOUDY    23  23 100 S6        30.19S
MARSHFIELD     CLOUDY    25  22  88 S7        30.18F FOG
WISC RAPIDS    CLOUDY    24  19  81 S3        30.23R
STEVENS POINT  CLOUDY    22  18  85 S3        30.22R
WAUPACA        CLOUDY    26  19  75 CALM      30.23S
SHAWANO        CLOUDY    25  17  73 CALM      30.24R
CLINTONVILLE   CLOUDY    23  18  80 CALM      30.23R
$$

WIZ038-039-048-051-280600-
FOX VALLEY

CITY           SKY/WX    TMP DP  RH WIND       PRES   REMARKS
NWS GREEN BAY  CLOUDY    17  14  88 CALM      30.24F
APPLETON       CLOUDY    23  18  80 S3        30.23S
OSHKOSH        CLOUDY    22  16  78 S3        30.23F
FOND DU LAC    CLOUDY    22  16  78 S5        30.24S
$$

WIZ022-050-052-280600-
EAST CENTRAL WISCONSIN

CITY           SKY/WX    TMP DP  RH WIND       PRES   REMARKS
STURGEON BAY   MOCLDY    16  12  86 SW3       30.24S
MANITOWOC      CLOUDY    24  18  77 SW3       30.24F
SHEBOYGAN      CLOUDY    25  19  78 CALM      30.24F
$$

LMZ563-521-522-541>543-280600-
LAKESHORE

STATION/POSITION TIME  TEMP    WIND        PRES    VSBY  WAVE
                       AIR SEA DIR/SP/G                  HT/PER
                 (UTC) (F)     (DEG/KT/KT) (MB)    (MI)  (FT/S)
SHEBOYGAN LKSHOR 0500   27      CALM  /  1 1025.3F
KEWAUNEE LKSHORE 0500   23      CALM  /  3 1023.0F
NORTHPORT PIER   0500   19     220/  2/  4 1024.0R
SISTER BAY LKSHO 0500   18        CALM       N/A
CHAMBERS ISLAND  0500   19     170/  3/  4 1024.0R
MENOMINEE LKSHOR 0500   18     210/  4     1024.5R
$$


USA.gov is the U.S. government's official web portal to all federal, state and local government web resources and services.